Location: Krakow
(50.0830°N, 19.9170°E)
Time: 12:26:57
(UTC+01:00)

Altair - All Passes

Search period start: 15 March 2026 00:00
Search period end: 25 March 2026 00:00
Orbit: 1502 x 1682 km, 47.2° (Epoch: 14 March)

Date Brightness Start Highest point End Pass type
(mag) Time Alt. Az. Time Alt. Az. Time Alt. Az.
15 Mar - 01:49:29 10° W 01:58:31 65° SSW 02:07:37 10° ESE visible
15 Mar - 03:54:14 10° W 04:02:05 33° SW 04:10:03 10° SSE visible
15 Mar - 19:16:37 10° SSE 19:22:08 17° SE 19:27:34 10° E visible
15 Mar - 21:16:16 10° SW 21:25:01 47° SSE 21:33:37 10° E visible
15 Mar - 23:19:47 10° WSW 23:29:01 74° S 23:38:09 10° E visible
16 Mar - 01:24:15 10° W 01:33:20 67° SSW 01:42:27 10° ESE visible
16 Mar - 03:28:58 10° W 03:36:59 36° SW 03:45:06 10° SSE visible
16 Mar - 18:52:07 10° SSE 18:57:05 16° SE 19:01:59 10° E visible
16 Mar - 20:51:12 10° SW 20:59:52 44° SSE 21:08:23 10° E visible
16 Mar - 22:54:34 10° WSW 23:03:48 73° S 23:12:56 10° E visible
17 Mar - 00:59:02 10° W 01:08:09 69° SSW 01:17:16 10° ESE visible
17 Mar - 03:03:42 10° W 03:11:52 38° SW 03:20:07 10° SSE visible
17 Mar - 05:12:02 10° WSW 05:14:22 11° WSW 05:16:43 10° SW visible
17 Mar - 18:27:44 10° SSE 18:32:02 14° SE 18:36:17 10° E visible
17 Mar - 20:26:09 10° SSW 20:34:44 42° SE 20:43:09 10° E visible
17 Mar - 22:29:22 10° WSW 22:38:36 72° SSE 22:47:43 10° E visible
18 Mar - 00:33:49 10° W 00:42:58 71° SSW 00:52:05 10° ESE visible
18 Mar - 02:38:27 10° W 02:46:45 40° SW 02:55:07 10° SSE visible
18 Mar - 04:45:50 10° WSW 04:49:20 13° SW 04:52:52 10° SSW visible
18 Mar - 18:03:33 10° SSE 18:07:00 12° SE 18:10:24 10° ESE daylight
18 Mar - 20:01:06 10° SSW 20:09:37 40° SE 20:17:55 10° E visible
18 Mar - 22:04:09 10° WSW 22:13:25 70° SSE 22:22:31 10° E visible
19 Mar - 00:08:36 10° W 00:17:47 72° S 00:26:54 10° ESE visible
19 Mar - 02:13:13 10° W 02:21:38 43° SW 02:30:06 10° SSE visible
19 Mar - 04:20:00 10° W 04:24:18 14° SW 04:28:39 10° SSW visible
19 Mar - 17:39:48 10° SE 17:41:58 11° ESE 17:44:07 10° ESE daylight
19 Mar - 19:36:06 10° SSW 19:44:29 37° SE 19:52:40 10° E visible
19 Mar - 21:38:57 10° WSW 21:48:13 69° SSE 21:57:18 10° E visible
19 Mar - 23:43:22 10° W 23:52:34 73° S 00:01:42 10° ESE visible
20 Mar - 01:47:58 10° W 01:56:30 45° SSW 02:05:04 10° SE visible
20 Mar - 03:54:19 10° W 03:59:16 16° SW 04:04:16 10° SSW visible
20 Mar - 19:11:06 10° SSW 19:19:22 35° SE 19:27:25 10° E visible
20 Mar - 21:13:46 10° WSW 21:23:01 67° SSE 21:32:06 10° E visible
20 Mar - 23:18:08 10° W 23:27:22 74° S 23:36:31 10° ESE visible
21 Mar - 01:22:43 10° W 01:31:22 48° SSW 01:40:01 10° SE visible
21 Mar - 03:28:44 10° W 03:34:13 18° SW 03:39:44 10° SSW visible
21 Mar - 18:46:08 10° SSW 18:54:15 33° SE 19:02:09 10° E visible
21 Mar - 20:48:34 10° WSW 20:57:50 65° SSE 21:06:53 10° E visible
21 Mar - 22:52:54 10° W 23:02:10 75° S 23:11:18 10° ESE visible
22 Mar - 00:57:29 10° W 01:06:13 50° SSW 01:14:56 10° SE visible
22 Mar - 03:03:13 10° W 03:09:10 19° SW 03:15:08 10° S visible
22 Mar - 18:21:12 10° SSW 18:29:08 31° SE 18:36:52 10° E visible
22 Mar - 20:23:23 10° WSW 20:32:39 63° SSE 20:41:41 10° E visible
22 Mar - 22:27:39 10° W 22:36:58 76° S 22:46:06 10° E visible
23 Mar - 00:32:15 10° W 00:41:04 52° SSW 00:49:51 10° SE visible
23 Mar - 02:37:46 10° W 02:44:07 21° SW 02:50:28 10° S visible
23 Mar - 17:56:17 10° SSW 18:04:02 29° SE 18:11:34 10° E daylight
23 Mar - 19:58:12 10° SW 20:07:27 61° SSE 20:16:29 10° E visible
23 Mar - 22:02:25 10° W 22:11:45 76° S 22:20:55 10° E visible
24 Mar - 00:07:01 10° W 00:15:55 55° SSW 00:24:45 10° SE visible
24 Mar - 02:12:22 10° W 02:19:03 23° SW 02:25:44 10° S night (unlit)
24 Mar - 17:31:25 10° S 17:38:56 27° SE 17:46:15 10° E daylight
24 Mar - 19:33:02 10° SW 19:42:17 59° SSE 19:51:16 10° E visible
24 Mar - 21:37:11 10° W 21:46:32 76° S 21:55:43 10° E visible
24 Mar - 23:41:46 10° W 23:50:45 57° SSW 23:59:38 10° SE visible
